Location: Moscow Mills
(39.6029°N, 81.6257°W)
Time: 22:54:00
(UTC+00:00)

ACS3 Solar Sail - Visible Passes

Search period start: 07 October 2024 00:00
Search period end: 17 October 2024 00:00
Orbit: 962 x 1035 km, 97.4° (Epoch: 07 October)

Date Brightness Start Highest point End Pass type
(mag) Time Alt. Az. Time Alt. Az. Time Alt. Az.
07 Oct 3.1 00:04:45 18° E 00:07:00 21° ENE 00:11:34 10° NNE visible
07 Oct 2.1 01:49:54 63° WSW 01:50:20 64° W 01:56:40 10° NNW visible
08 Oct 2.4 00:36:56 33° E 00:38:20 37° ENE 00:44:04 10° N visible
08 Oct 3.1 02:22:05 35° W 02:22:10 35° W 02:27:57 10° NNW visible
08 Oct 3.7 23:26:41 10° ENE 23:27:06 10° ENE 23:27:32 10° NE visible
09 Oct 1.8 01:09:06 61° ESE 01:09:49 65° ENE 01:16:06 10° N visible
09 Oct 4.0 02:54:15 19° W 02:54:15 19° W 02:58:32 10° NW visible
09 Oct 3.2 23:56:06 16° E 23:58:12 19° ENE 00:02:24 10° NNE visible
10 Oct 2.0 01:41:15 71° WSW 01:41:26 72° W 01:47:47 10° NNW visible
11 Oct 2.5 00:28:14 31° E 00:29:27 33° ENE 00:34:59 10° N visible
11 Oct 3.0 02:13:23 39° W 02:13:23 39° W 02:19:06 10° NNW visible
12 Oct 1.8 01:00:22 57° E 01:00:52 58° ENE 01:07:03 10° N visible
12 Oct 3.9 02:45:30 22° W 02:45:30 22° W 02:49:50 10° NW visible
12 Oct 3.3 23:47:19 15° E 23:49:16 17° ENE 23:53:03 10° NNE visible
13 Oct 1.8 01:32:28 80° W 01:32:28 80° W 01:38:45 10° NNW visible
13 Oct 4.5 03:17:38 11° W 03:17:38 11° W 03:18:31 10° WNW visible
14 Oct 2.6 00:19:25 28° E 00:20:26 29° ENE 00:25:45 10° N visible
14 Oct 2.8 02:04:34 44° W 02:04:34 44° W 02:10:07 10° NNW visible
15 Oct 1.9 00:51:29 51° E 00:51:47 52° ENE 00:57:51 10° N visible
15 Oct 3.7 02:36:39 24° W 02:36:39 24° W 02:40:57 10° NW visible
15 Oct 3.4 23:38:25 13° E 23:40:13 15° ENE 23:43:29 10° NNE visible
16 Oct 1.8 01:23:33 83° NNW 01:23:33 83° NNW 01:29:35 10° NNW visible
16 Oct 4.4 03:08:42 12° WNW 03:08:42 12° WNW 03:10:27 10° WNW visible
